Погода в Черном Ключе

Россия / Самарская область     54°19′41″N   51°50′38″E
В апреле 2022 года жителям России запретили посещать сайт meteo.paraplan.net по решению Генеральной прокуратуры. Аудитория сайта уменьшилась в 10 раз. Владельцы сайта не видят смысла в поддержке погодного сервера в таких условиях. Сайт будет закрыт в октябре.
темп.,
°C
ветер,
м/с
пор.,
м/с
влажн.,
%
обл.,
%
осадки,
мм/ч
давл.,
гПа
погр.,
м
3 октября, пн
пн301:00+13ююв7155673 0.0 1017499
04:00+13ююв71555100 0.1 1018503
07:00+12ююв7155439 0.0 1018483
10:00+14ююв8144343 0.0 1020651
13:00+17ю9123512 0.0 1020962
16:00+17ю8123532 0.0 10211021
19:00+14ююв714395 0.0 1022549
22:00+12ююв7163798 0.0 1023550
4 октября, вт
вт401:00+11ююв61440100 0.0 1024414
04:00+10юв51338100 0.0 1025360
07:00+10юв61334100 0.0 1026366
10:00+12ююв61330100 0.0 1027506
13:00+14ююв61127100 0.0 1027603
16:00+15ююв61026100 0.0 1027927
19:00+11ююв51229100 0.0 1028335
22:00+11ююв61427100 0.0 1027472
5 октября, ср
ср501:00+11ююв51328100 0.0 1028469
04:00+8ююв4959100 0.3 1029355
07:00+8вюв51062100 0.1 1027330
10:00+10ююв51334100 0.1 1026484
13:00+11ююв71432100 0.0 1025535
16:00+11ююв71453100 0.0 1025637
19:00+10ю71349100 0.0 1025642
22:00+8ю71367100 0.3 1024668
6 октября, чт
чт601:00+8ю61390100 2.8 1022624
04:00+8ю41083100 3.4 1020447
07:00+8ююв2681100 0.3 1019273
10:00+7ююв3794100 3.1 1019250
13:00+10ю4586100 1.2 1017525
16:00+10ю468174 1.3 1016570
19:00+10з258692 1.0 1016235
22:00+8зсз268489 1.3 1016229
7 октября, пт
пт701:00+5з37888 0.0 1016156
04:00+4зюз368999 0.0 1016151
07:00+6зюз36859 0.1 1016239
10:00+8юз576598 0.1 1015630
13:00+7ююз51088100 0.8 1014554
16:00+9зюз51197100 1.8 1013614
19:00+10з51191100 0.2 1014527
22:00+10з71384100 0.4 1015724